| time (UTC) | temp F | wind direction | speed knots | gust knots | rain 1hr in | rain 24hr in | rain mn in | humidity % | barometer mb |
| 20260905034604 | 61 | 302 | 0.0 | 0.0 | 0.00 | 0.00 | 0.00 | 50 | 1012.4 |
| 20260905033057 | 62 | 302 | 0.0 | 0.0 | 0.00 | 0.00 | 0.00 | 50 | 1012.2 |
| 20260905031557 | 64 | 302 | 0.0 | 0.0 | 0.00 | 0.00 | 0.00 | 50 | 1012.1 |
| 20260905030115 | 66 | 302 | 0.0 | 0.0 | 0.00 | 0.00 | 0.00 | 48 | 1012.0 |
| 20260905024557 | 67 | 302 | 0.0 | 0.0 | 0.00 | 0.00 | 0.00 | 47 | 1012.0 |
| 20260905023155 | 68 | 302 | 0.0 | 0.0 | 0.00 | 0.00 | 0.00 | 46 | 1011.9 |
| 20260905021553 | 69 | 302 | 0.0 | 0.0 | 0.00 | 0.00 | 0.00 | 45 | 1011.7 |
| 20260905020053 | 70 | 302 | 0.0 | 1.7 | 0.00 | 0.00 | 0.00 | 44 | 1011.8 |
| 20260905014557 | 71 | 294 | 0.0 | 0.0 | 0.00 | 0.00 | 0.00 | 43 | 1011.7 |
| 20260905013054 | 72 | 300 | 0.0 | 0.9 | 0.00 | 0.00 | 0.00 | 43 | 1011.7 |
| 20260905011552 | 73 | 302 | 0.0 | 4.3 | 0.00 | 0.00 | 0.00 | 42 | 1011.7 |
| 20260905010051 | 73 | 296 | 0.0 | 7.0 | 0.00 | 0.00 | 0.00 | 41 | 1011.7 |
| 20260905004551 | 74 | 301 | 0.9 | 7.0 | 0.00 | 0.00 | 0.00 | 41 | 1011.7 |
| 20260905003050 | 75 | 296 | 0.0 | 2.6 | 0.00 | 0.00 | 0.00 | 40 | 1011.8 |
| 20260905001549 | 76 | 279 | 0.0 | 4.3 | 0.00 | 0.00 | 0.00 | 41 | 1011.7 |
| 20260905000049 | 76 | 315 | 1.7 | 10.4 | 0.00 | 0.00 | 0.00 | 41 | 1011.8 |
| 20260904234550 | 77 | 304 | 2.6 | 11.3 | 0.00 | 0.00 | 0.00 | 40 | 1011.8 |
| 20260904233046 | 78 | 313 | 0.9 | 12.2 | 0.00 | 0.00 | 0.00 | 39 | 1011.9 |
| 20260904231544 | 78 | 298 | 3.5 | 10.4 | 0.00 | 0.00 | 0.00 | 38 | 1011.8 |
| 20260904230043 | 79 | 306 | 3.5 | 10.4 | 0.00 | 0.00 | 0.00 | 37 | 1011.9 |
| 20260904224542 | 80 | 313 | 3.5 | 12.2 | 0.00 | 0.00 | 0.00 | 35 | 1011.9 |
| 20260904223048 | 81 | 281 | 0.9 | 6.1 | 0.00 | 0.00 | 0.00 | 32 | 1011.9 |
| 20260904221547 | 81 | 255 | 0.0 | 3.5 | 0.00 | 0.00 | 0.00 | 30 | 1012.2 |
| 20260904220041 | 82 | 273 | 0.0 | 11.3 | 0.00 | 0.00 | 0.00 | 28 | 1012.2 |
| 20260904214539 | 82 | 246 | 0.9 | 14.8 | 0.00 | 0.00 | 0.00 | 29 | 1012.3 |
| 20260904213033 | 84 | 288 | 3.5 | 10.4 | 0.00 | 0.00 | 0.00 | 27 | 1012.2 |
| 20260904211535 | 86 | 283 | 1.7 | 10.4 | 0.00 | 0.00 | 0.00 | 25 | 1012.3 |
| 20260904210028 | 86 | 170 | 0.0 | 7.8 | 0.00 | 0.00 | 0.00 | 22 | 1012.5 |
| 20260904204528 | 87 | 317 | 0.9 | 7.0 | 0.00 | 0.00 | 0.00 | 22 | 1012.4 |
| 20260904203030 | 87 | 237 | 0.0 | 3.5 | 0.00 | 0.00 | 0.00 | 20 | 1012.4 |
| 20260904201529 | 86 | 263 | 0.9 | 7.0 | 0.00 | 0.00 | 0.00 | 18 | 1012.5 |
| 20260904200019 | 86 | 234 | 0.0 | 2.6 | 0.00 | 0.00 | 0.00 | 18 | 1012.8 |
| 20260904194533 | 85 | 211 | 0.0 | 0.0 | 0.00 | 0.00 | 0.00 | 17 | 1012.9 |
| 20260904193032 | 84 | 194 | 0.9 | 7.0 | 0.00 | 0.00 | 0.00 | 17 | 1013.2 |
| 20260904191513 | 84 | 150 | 0.0 | 4.3 | 0.00 | 0.00 | 0.00 | 17 | 1013.3 |
| 20260904190010 | 83 | 195 | 0.0 | 7.0 | 0.00 | 0.00 | 0.00 | 17 | 1013.2 |
| 20260904184510 | 83 | 260 | 0.0 | 4.3 | 0.00 | 0.00 | 0.00 | 17 | 1013.3 |
| 20260904183008 | 82 | 159 | 0.0 | 0.0 | 0.00 | 0.00 | 0.00 | 18 | 1013.2 |
| 20260904181503 | 81 | 223 | 0.0 | 0.0 | 0.00 | 0.00 | 0.00 | 18 | 1013.5 |
| 20260904174559 | 80 | 215 | 0.0 | 0.0 | 0.00 | 0.00 | 0.00 | 20 | 1013.5 |
| 20260904173103 | 79 | 207 | 0.0 | 0.0 | 0.00 | 0.00 | 0.00 | 21 | 1013.4 |
| 20260904171552 | 78 | 197 | 0.0 | 0.0 | 0.00 | 0.00 | 0.00 | 22 | 1013.3 |
| 20260904170049 | 77 | 196 | 0.0 | 0.0 | 0.00 | 0.00 | 0.00 | 21 | 1013.1 |
| 20260904164546 | 76 | 190 | 0.0 | 0.0 | 0.00 | 0.00 | 0.00 | 20 | 1013.0 |
| 20260904163041 | 75 | 125 | 0.0 | 0.0 | 0.00 | 0.00 | 0.00 | 19 | 1012.9 |
| 20260904161544 | 71 | 122 | 0.0 | 0.0 | 0.00 | 0.00 | 0.00 | 20 | 1012.8 |
| 20260904160036 | 67 | 122 | 0.0 | 0.0 | 0.00 | 0.00 | 0.00 | 22 | 1012.6 |
| 20260904154528 | 62 | 122 | 0.0 | 0.0 | 0.00 | 0.00 | 0.00 | 24 | 1012.7 |
| 20260904153026 | 58 | 122 | 0.0 | 0.0 | 0.00 | 0.00 | 0.00 | 29 | 1012.7 |
| 20260904151533 | 55 | 122 | 0.0 | 0.0 | 0.00 | 0.00 | 0.00 | 38 | 1012.5 |
| 20260904150015 | 52 | 122 | 0.0 | 0.0 | 0.00 | 0.00 | 0.00 | 42 | 1012.3 |
| 20260904144512 | 51 | 121 | 0.0 | 0.0 | 0.00 | 0.00 | 0.00 | 47 | 1012.2 |
| 20260904143010 | 50 | 121 | 0.0 | 0.0 | 0.00 | 0.00 | 0.00 | 46 | 1012.0 |
| 20260904141509 | 49 | 278 | 0.0 | 0.0 | 0.00 | 0.00 | 0.00 | 45 | 1011.9 |
| 20260904140007 | 48 | 294 | 0.0 | 0.0 | 0.00 | 0.00 | 0.00 | 45 | 1011.7 |
| 20260904134506 | 48 | 294 | 0.0 | 0.0 | 0.00 | 0.00 | 0.00 | 51 | 1011.7 |
| 20260904133005 | 48 | 294 | 0.0 | 0.0 | 0.00 | 0.00 | 0.00 | 50 | 1011.7 |
| 20260904131503 | 49 | 294 | 0.0 | 0.0 | 0.00 | 0.00 | 0.00 | 49 | 1011.7 |
| 20260904130002 | 49 | 294 | 0.0 | 0.0 | 0.00 | 0.00 | 0.00 | 48 | 1011.3 |
| 20260904124501 | 49 | 294 | 0.0 | 0.0 | 0.00 | 0.00 | 0.00 | 49 | 1011.2 |
| 20260904123111 | 49 | 294 | 0.0 | 0.0 | 0.00 | 0.00 | 0.00 | 50 | 1011.1 |
| 20260904121657 | 50 | 294 | 0.0 | 0.0 | 0.00 | 0.00 | 0.00 | 49 | 1011.1 |
| 20260904120055 | 50 | 294 | 0.0 | 0.0 | 0.00 | 0.00 | 0.00 | 50 | 1011.3 |
| 20260904114555 | 50 | 294 | 0.0 | 0.0 | 0.00 | 0.00 | 0.00 | 48 | 1011.2 |
| 20260904113056 | 51 | 294 | 0.0 | 0.0 | 0.00 | 0.00 | 0.00 | 46 | 1011.3 |
| 20260904111553 | 51 | 294 | 0.0 | 0.0 | 0.00 | 0.00 | 0.00 | 44 | 1011.3 |
| 20260904110052 | 51 | 294 | 0.0 | 0.0 | 0.00 | 0.00 | 0.00 | 41 | 1011.3 |
| 20260904104552 | 50 | 294 | 0.0 | 0.0 | 0.00 | 0.00 | 0.00 | 38 | 1011.3 |
| 20260904103052 | 50 | 294 | 0.0 | 0.0 | 0.00 | 0.00 | 0.00 | 36 | 1011.2 |
| 20260904101549 | 50 | 294 | 0.0 | 0.0 | 0.00 | 0.00 | 0.00 | 34 | 1011.3 |
| 20260904100049 | 50 | 294 | 0.0 | 0.0 | 0.00 | 0.00 | 0.00 | 35 | 1011.3 |
| 20260904094547 | 50 | 294 | 0.0 | 0.0 | 0.00 | 0.00 | 0.00 | 36 | 1011.3 |
| 20260904093052 | 50 | 294 | 0.0 | 0.0 | 0.00 | 0.00 | 0.00 | 35 | 1011.3 |
| 20260904091543 | 50 | 294 | 0.0 | 0.0 | 0.00 | 0.00 | 0.00 | 38 | 1011.2 |
| 20260904090048 | 50 | 294 | 0.0 | 0.0 | 0.00 | 0.00 | 0.00 | 40 | 1011.4 |
| 20260904084538 | 50 | 294 | 0.0 | 0.0 | 0.00 | 0.00 | 0.00 | 44 | 1011.5 |
| 20260904083037 | 50 | 294 | 0.0 | 0.0 | 0.00 | 0.00 | 0.00 | 48 | 1011.8 |
| 20260904081533 | 50 | 294 | 0.0 | 0.0 | 0.00 | 0.00 | 0.00 | 49 | 1011.8 |
| 20260904080046 | 50 | 294 | 0.0 | 0.0 | 0.00 | 0.00 | 0.00 | 51 | 1011.9 |
| 20260904074533 | 50 | 294 | 0.0 | 0.0 | 0.00 | 0.00 | 0.00 | 48 | 1011.8 |
| 20260904073035 | 51 | 294 | 0.0 | 0.0 | 0.00 | 0.00 | 0.00 | 52 | 1011.9 |
| 20260904071526 | 51 | 294 | 0.0 | 0.0 | 0.00 | 0.00 | 0.00 | 51 | 1011.8 |
| 20260904070024 | 51 | 294 | 0.0 | 0.0 | 0.00 | 0.00 | 0.00 | 52 | 1011.7 |
| 20260904064524 | 51 | 294 | 0.0 | 0.0 | 0.00 | 0.00 | 0.00 | 55 | 1011.6 |
| 20260904063024 | 52 | 294 | 0.0 | 0.0 | 0.00 | 0.00 | 0.00 | 59 | 1011.6 |
| 20260904061525 | 52 | 294 | 0.0 | 0.0 | 0.00 | 0.00 | 0.00 | 64 | 1011.6 |
| 20260904060023 | 53 | 294 | 0.0 | 0.0 | 0.00 | 0.00 | 0.00 | 62 | 1011.5 |
| 20260904054522 | 53 | 294 | 0.0 | 0.0 | 0.00 | 0.00 | 0.00 | 66 | 1011.7 |
| 20260904053023 | 54 | 294 | 0.0 | 0.0 | 0.00 | 0.00 | 0.00 | 69 | 1011.5 |
| 20260904051529 | 55 | 294 | 0.0 | 0.0 | 0.00 | 0.00 | 0.00 | 74 | 1011.5 |
| 20260904050021 | 56 | 294 | 0.0 | 0.0 | 0.00 | 0.00 | 0.00 | 75 | 1011.5 |
| 20260904044534 | 56 | 294 | 0.0 | 0.0 | 0.00 | 0.00 | 0.00 | 75 | 1011.5 |
| 20260904043020 | 57 | 294 | 0.0 | 0.0 | 0.00 | 0.00 | 0.00 | 74 | 1011.4 |
| 20260904041532 | 57 | 294 | 0.0 | 0.0 | 0.00 | 0.00 | 0.00 | 73 | 1011.5 |